GW1987 Weather Reports


Display with metric or nautical units.
time (UTC)temp
F
wind
direction
speed
MPH
gust
MPH
rain 1hr
in
rain 24hr
in
rain mn
in
humidity
%
barometer
mb
20260507235014 65 360 11.0 19.0 0.00 0.00 0.00 28 922.5
20260507234545 66 360 14.0 19.0 0.00 0.00 0.00 28 922.5
20260507234013 66 360 13.0 18.0 0.00 0.00 0.00 27 922.6
20260507233516 66 360 12.0 17.0 0.00 0.00 0.00 27 922.5
20260507233045 66 360 12.0 18.0 0.00 0.00 0.00 28 922.5
20260507232518 65 360 12.0 19.0 0.00 0.00 0.00 28 922.5
20260507232015 66 360 14.0 19.0 0.00 0.00 0.00 28 922.5
20260507231549 65 360 13.0 18.0 0.00 0.00 0.00 28 922.6
20260507231019 65 360 14.0 21.0 0.00 0.00 0.00 28 922.6
20260507230516 66 360 16.0 23.0 0.00 0.00 0.00 27 922.7
20260507230050 67 360 15.0 23.0 0.00 0.00 0.00 28 922.5
20260507225521 66 360 16.0 22.0 0.00 0.00 0.00 30 922.6
20260507225016 65 360 13.0 23.0 0.00 0.00 0.00 31 922.7
20260507224602 64 360 14.0 23.0 0.00 0.00 0.00 33 922.8
20260507224015 63 360 18.0 23.0 0.00 0.00 0.00 33 922.5
20260507223517 63 360 18.0 24.0 0.00 0.00 0.00 33 922.7
20260507223058 64 360 20.0 26.0 0.00 0.00 0.00 32 922.7
20260507222516 65 360 20.0 26.0 0.00 0.00 0.00 30 922.7
20260507222014 65 360 20.0 26.0 0.00 0.00 0.00 31 922.7
20260507221544 64 360 21.0 27.0 0.00 0.00 0.00 31 922.9
20260507221015 63 360 22.0 27.0 0.00 0.00 0.00 33 923.0
20260507220516 62 360 21.0 30.0 0.00 0.00 0.00 35 923.1
20260507220042 63 360 23.0 30.0 0.00 0.00 0.00 34 923.0
20260507215514 64 360 24.0 30.0 0.00 0.00 0.00 34 922.9
20260507215015 64 360 23.0 30.0 0.00 0.00 0.00 34 923.1
20260507214552 64 360 19.0 28.0 0.00 0.00 0.00 30 923.1
20260507214016 64 360 22.0 28.0 0.00 0.00 0.00 30 923.0
20260507213516 67 360 6.0 19.0 0.00 0.00 0.00 23 923.2
20260507213046 67 360 2.0 8.0 0.00 0.00 0.00 22 923.2
20260507212515 67 360 3.0 9.0 0.00 0.00 0.00 22 923.2
20260507212016 66 360 3.0 9.0 0.00 0.00 0.00 23 923.0
20260507211601 66 360 4.0 8.0 0.00 0.00 0.00 23 923.1
20260507211015 66 360 3.0 10.0 0.00 0.00 0.00 23 923.1
20260507210515 66 360 6.0 11.0 0.00 0.00 0.00 23 923.0
20260507210055 66 360 6.0 12.0 0.00 0.00 0.00 23 923.2
20260507205515 66 360 10.0 15.0 0.00 0.00 0.00 23 923.1
20260507205015 66 360 8.0 17.0 0.00 0.00 0.00 23 923.1
20260507204600 67 360 10.0 13.0 0.00 0.00 0.00 22 923.1
20260507204013 67 360 6.0 17.0 0.00 0.00 0.00 22 923.2
20260507203516 67 360 4.0 10.0 0.00 0.00 0.00 22 923.1
20260507203047 67 360 1.0 12.0 0.00 0.00 0.00 22 923.0
20260507202515 67 360 7.0 14.0 0.00 0.00 0.00 22 923.2
20260507202014 67 360 10.0 15.0 0.00 0.00 0.00 21 923.4
20260507201604 67 360 8.0 13.0 0.00 0.00 0.00 22 923.0
20260507201014 67 360 6.0 14.0 0.00 0.00 0.00 22 923.3
20260507200517 67 360 5.0 14.0 0.00 0.00 0.00 23 923.4
20260507195516 67 360 3.0 10.0 0.00 0.00 0.00 23 923.2
20260507195017 67 360 1.0 14.0 0.00 0.00 0.00 22 923.2
20260507194556 67 360 10.0 14.0 0.00 0.00 0.00 22 923.2
20260507194015 66 360 6.0 12.0 0.00 0.00 0.00 24 923.4
20260507193516 65 360 4.0 8.0 0.00 0.00 0.00 25 923.1
20260507193049 65 360 3.0 8.0 0.00 0.00 0.00 25 923.3
20260507192517 65 360 3.0 8.0 0.00 0.00 0.00 25 923.3
20260507192017 65 360 1.0 9.0 0.00 0.00 0.00 24 923.4
20260507191553 65 360 4.0 9.0 0.00 0.00 0.00 24 923.3
20260507191016 65 360 3.0 14.0 0.00 0.00 0.00 24 923.3
20260507190514 65 360 7.0 15.0 0.00 0.00 0.00 26 923.3
20260507190054 65 360 9.0 15.0 0.00 0.00 0.00 25 923.0
20260507185514 65 360 4.0 14.0 0.00 0.00 0.00 25 923.1
20260507185013 65 360 5.0 14.0 0.00 0.00 0.00 24 923.1
20260507184550 65 360 3.0 10.0 0.00 0.00 0.00 25 923.3
20260507184018 65 360 2.0 10.0 0.00 0.00 0.00 25 923.3
20260507183514 64 360 4.0 14.0 0.00 0.00 0.00 26 923.2
20260507183048 64 360 9.0 19.0 0.00 0.00 0.00 26 923.3
20260507182516 64 360 6.0 16.0 0.00 0.00 0.00 26 923.3
20260507182017 64 360 6.0 12.0 0.00 0.00 0.00 26 923.5
20260507181550 64 360 7.0 14.0 0.00 0.00 0.00 25 923.4
20260507181018 65 360 10.0 16.0 0.00 0.00 0.00 25 923.2
20260507180513 65 360 12.0 16.0 0.00 0.00 0.00 25 923.5
20260507180049 65 360 0.0 6.0 0.00 0.00 0.00 25 923.7
20260507175518 65 360 3.0 9.0 0.00 0.00 0.00 25 923.4
20260507175015 65 360 4.0 11.0 0.00 0.00 0.00 26 923.5
20260507174555 64 360 3.0 14.0 0.00 0.00 0.00 27 923.7
20260507174016 63 360 8.0 19.0 0.00 0.00 0.00 27 923.8
20260507173517 63 360 13.0 19.0 0.00 0.00 0.00 26 923.6
20260507173048 63 360 9.0 18.0 0.00 0.00 0.00 26 923.6
20260507172517 64 360 12.0 18.0 0.00 0.00 0.00 26 923.8
20260507172014 64 360 10.0 16.0 0.00 0.00 0.00 26 923.8
20260507171555 64 360 4.0 15.0 0.00 0.00 0.00 27 923.9
20260507171015 64 360 6.0 15.0 0.00 0.00 0.00 27 923.9
20260507170513 63 360 11.0 15.0 0.00 0.00 0.00 27 923.8
20260507170053 63 360 6.0 15.0 0.00 0.00 0.00 27 923.9
20260507165517 63 360 3.0 14.0 0.00 0.00 0.00 27 923.8
20260507165017 63 360 8.0 14.0 0.00 0.00 0.00 27 923.7
20260507164553 63 360 2.0 18.0 0.00 0.00 0.00 27 923.9
20260507164015 63 360 11.0 18.0 0.00 0.00 0.00 28 923.7
20260507163517 63 360 8.0 16.0 0.00 0.00 0.00 28 923.9
20260507163052 63 360 8.0 16.0 0.00 0.00 0.00 27 923.9
20260507162515 63 360 7.0 17.0 0.00 0.00 0.00 28 924.0
20260507162016 63 360 10.0 17.0 0.00 0.00 0.00 28 924.0
20260507161549 63 360 3.0 14.0 0.00 0.00 0.00 28 923.9
20260507161014 63 360 7.0 13.0 0.00 0.00 0.00 28 924.0
20260507160516 62 360 6.0 12.0 0.00 0.00 0.00 28 923.8
20260507160052 62 360 6.0 11.0 0.00 0.00 0.00 29 923.8
20260507155517 62 360 7.0 10.0 0.00 0.00 0.00 29 923.8
20260507155016 61 360 3.0 9.0 0.00 0.00 0.00 30 924.0
20260507154547 61 360 3.0 11.0 0.00 0.00 0.00 30 923.8
20260507154017 60 360 6.0 11.0 0.00 0.00 0.00 30 923.8
20260507153518 60 360 3.0 11.0 0.00 0.00 0.00 30 923.7
20260507153059 60 360 7.0 11.0 0.00 0.00 0.00 30 923.6
20260507152519 60 360 6.0 10.0 0.00 0.00 0.00 30 923.7
20260507152015 60 360 3.0 10.0 0.00 0.00 0.00 29 923.7
20260507151550 60 360 5.0 9.0 0.00 0.00 0.00 29 923.8
20260507151015 60 360 4.0 8.0 0.00 0.00 0.00 30 923.7
20260507150518 59 360 3.0 11.0 0.00 0.00 0.00 30 923.8
20260507150045 59 360 3.0 11.0 0.00 0.00 0.00 30 923.8
20260507145514 59 360 5.0 9.0 0.00 0.00 0.00 30 923.7
20260507145017 58 360 3.0 9.0 0.00 0.00 0.00 30 923.7
20260507144545 58 360 6.0 9.0 0.00 0.00 0.00 30 923.6
20260507144015 58 360 6.0 11.0 0.00 0.00 0.00 31 923.6
20260507143515 58 360 8.0 11.0 0.00 0.00 0.00 31 923.6
20260507143047 57 360 8.0 12.0 0.00 0.00 0.00 32 923.5
20260507142516 57 360 8.0 12.0 0.00 0.00 0.00 32 923.5
20260507142013 56 360 5.0 9.0 0.00 0.00 0.00 34 923.5
20260507141550 56 360 4.0 8.0 0.00 0.00 0.00 35 923.5
20260507141015 55 360 4.0 6.0 0.00 0.00 0.00 37 923.6
20260507140517 54 360 3.0 8.0 0.00 0.00 0.00 38 923.6
20260507140105 53 360 4.0 8.0 0.00 0.00 0.00 38 923.5
20260507135517 53 360 6.0 8.0 0.00 0.00 0.00 39 923.7
20260507135014 52 360 6.0 8.0 0.00 0.00 0.00 40 923.5
20260507134550 51 360 3.0 5.0 0.00 0.00 0.00 42 923.5
20260507134018 50 360 3.0 6.0 0.00 0.00 0.00 42 923.4
20260507133518 49 360 4.0 6.0 0.00 0.00 0.00 43 923.3
20260507133049 48 360 5.0 6.0 0.00 0.00 0.00 44 923.2
20260507132516 48 360 2.0 6.0 0.00 0.00 0.00 44 923.3
20260507132020 47 360 3.0 6.0 0.00 0.00 0.00 45 923.2
20260507131550 46 360 2.0 4.0 0.00 0.00 0.00 46 923.4
20260507131015 46 360 2.0 4.0 0.00 0.00 0.00 45 923.2
20260507130517 46 360 2.0 4.0 0.00 0.00 0.00 45 923.2
20260507130056 46 360 2.0 6.0 0.00 0.00 0.00 45 923.1
20260507125517 46 360 4.0 6.0 0.00 0.00 0.00 45 923.1
20260507125016 45 360 4.0 9.0 0.00 0.00 0.00 46 923.1
20260507124555 45 360 5.0 9.0 0.00 0.00 0.00 46 923.0
20260507124019 45 360 5.0 9.0 0.00 0.00 0.00 46 922.9
20260507123519 45 360 7.0 9.0 0.00 0.00 0.00 46 923.0
20260507123030 44 360 7.0 9.0 0.00 0.00 0.00 46 922.7
20260507122516 45 360 5.0 9.0 0.00 0.00 0.00 45 922.5
20260507122012 45 360 7.0 10.0 0.00 0.00 0.00 45 922.6
20260507121530 45 360 8.0 10.0 0.00 0.00 0.00 44 922.6
20260507121011 46 360 8.0 10.0 0.00 0.00 0.00 44 922.6
20260507120512 46 360 5.0 6.0 0.00 0.00 0.00 43 922.3
20260507120027 47 360 2.0 4.0 0.00 0.00 0.00 42 922.2
20260507115516 47 360 2.0 4.0 0.00 0.00 0.00 42 922.3
20260507115014 47 360 2.0 4.0 0.00 0.00 0.00 42 922.1
20260507114531 47 360 2.0 4.0 0.00 0.00 0.00 41 922.2
20260507114011 48 360 2.0 3.0 0.00 0.00 0.00 41 922.1
20260507113513 47 360 0.0 5.0 0.00 0.00 0.00 42 922.1
20260507113034 47 360 2.0 5.0 0.00 0.00 0.00 41 922.2
20260507112512 47 360 3.0 5.0 0.00 0.00 0.00 39 922.3
20260507112012 48 360 0.0 5.0 0.00 0.00 0.00 40 922.2
20260507111533 48 360 3.0 5.0 0.00 0.00 0.00 40 922.1
20260507111013 47 360 4.0 5.0 0.00 0.00 0.00 42 921.9
20260507110509 46 360 1.0 5.0 0.00 0.00 0.00 43 922.1
20260507110028 46 360 2.0 5.0 0.00 0.00 0.00 42 922.0
20260507105513 46 360 4.0 5.0 0.00 0.00 0.00 42 922.0
20260507105010 46 360 2.0 3.0 0.00 0.00 0.00 41 921.9
20260507104531 46 360 0.0 4.0 0.00 0.00 0.00 41 921.9
20260507104010 46 360 2.0 5.0 0.00 0.00 0.00 40 921.9
20260507103511 47 360 3.0 5.0 0.00 0.00 0.00 40 922.0
20260507103031 47 360 4.0 5.0 0.00 0.00 0.00 40 922.0
20260507102512 47 360 3.0 5.0 0.00 0.00 0.00 40 922.1
20260507102012 47 360 3.0 5.0 0.00 0.00 0.00 40 921.9
20260507101549 47 360 3.0 5.0 0.00 0.00 0.00 39 922.0
20260507101013 48 360 4.0 8.0 0.00 0.00 0.00 39 922.1
20260507100511 47 360 5.0 8.0 0.00 0.00 0.00 39 922.0
20260507100034 47 360 5.0 6.0 0.00 0.00 0.00 39 922.1
20260507095510 48 360 4.0 5.0 0.00 0.00 0.00 39 922.0
20260507095016 48 360 3.0 5.0 0.00 0.00 0.00 39 922.0
20260507094529 48 360 4.0 5.0 0.00 0.00 0.00 38 922.1
20260507094011 48 360 3.0 4.0 0.00 0.00 0.00 38 921.9
20260507093510 48 360 1.0 3.0 0.00 0.00 0.00 37 921.9
20260507093032 48 360 1.0 3.0 0.00 0.00 0.00 36 921.7
20260507092519 48 360 1.0 4.0 0.00 0.00 0.00 35 921.8
20260507092009 49 360 2.0 4.0 0.00 0.00 0.00 35 921.7
20260507091550 48 360 0.0 2.0 0.00 0.00 0.00 36 921.5
20260507091015 48 360 0.0 3.0 0.00 0.00 0.00 36 921.5
20260507090513 49 360 1.0 9.0 0.00 0.00 0.00 36 921.4
20260507090032 48 360 5.0 10.0 0.00 0.00 0.00 37 921.2
20260507085511 49 360 8.0 10.0 0.00 0.00 0.00 36 921.1
20260507085011 49 360 5.0 10.0 0.00 0.00 0.00 37 921.1
20260507084535 48 360 8.0 10.0 0.00 0.00 0.00 41 920.9
20260507084014 48 360 7.0 8.0 0.00 0.00 0.00 40 920.8
20260507083511 49 360 5.0 6.0 0.00 0.00 0.00 39 920.9
20260507083031 49 360 2.0 6.0 0.00 0.00 0.00 39 920.8
20260507082511 49 360 4.0 6.0 0.00 0.00 0.00 39 920.7
20260507082012 49 360 4.0 9.0 0.00 0.00 0.00 39 920.8
20260507081545 49 360 7.0 9.0 0.00 0.00 0.00 38 920.7
20260507081011 50 360 5.0 9.0 0.00 0.00 0.00 38 920.4
20260507080515 50 360 7.0 9.0 0.00 0.00 0.00 38 920.4
20260507080031 50 360 6.0 9.0 0.00 0.00 0.00 38 920.5
20260507075513 51 360 6.0 9.0 0.00 0.00 0.00 38 920.2
20260507075017 52 360 6.0 11.0 0.00 0.00 0.00 37 920.1
20260507074536 53 360 9.0 12.0 0.00 0.00 0.00 37 920.1
20260507074012 53 360 9.0 12.0 0.00 0.00 0.00 37 920.1
20260507073511 54 360 10.0 13.0 0.00 0.00 0.00 36 920.0
20260507073031 55 360 11.0 13.0 0.00 0.00 0.00 37 919.9
20260507072514 55 360 12.0 14.0 0.00 0.00 0.00 38 919.8
20260507072015 55 360 12.0 17.0 0.00 0.00 0.00 38 919.9
20260507071528 56 360 13.0 17.0 0.00 0.00 0.00 37 920.0
20260507071012 57 360 14.0 19.0 0.00 0.00 0.00 37 919.9
20260507070512 56 360 14.0 18.0 0.00 0.00 0.00 38 920.0
20260507070030 56 360 12.0 16.0 0.00 0.00 0.00 39 920.0
20260507065513 54 360 11.0 14.0 0.00 0.00 0.00 40 919.9
20260507065012 54 360 11.0 21.0 0.00 0.00 0.00 40 919.9
20260507064532 55 360 15.0 22.0 0.00 0.00 0.00 40 919.8
20260507064014 54 360 19.0 22.0 0.00 0.00 0.00 41 919.5
20260507063512 54 360 12.0 17.0 0.00 0.00 0.00 41 919.7
20260507063030 54 360 13.0 18.0 0.00 0.00 0.00 41 919.3
20260507062517 54 360 15.0 18.0 0.00 0.00 0.00 41 919.1
20260507062014 53 360 14.0 17.0 0.00 0.00 0.00 41 918.8
20260507061534 53 360 13.0 16.0 0.00 0.00 0.00 42 918.9
20260507061012 52 360 12.0 15.0 0.00 0.00 0.00 42 918.9
20260507060512 52 360 11.0 13.0 0.00 0.00 0.00 42 918.6
20260507060032 52 360 7.0 11.0 0.00 0.00 0.00 40 918.6
20260507055511 54 360 6.0 13.0 0.00 0.00 0.00 38 918.7
20260507055012 54 360 10.0 14.0 0.00 0.00 0.00 38 918.6
20260507054530 55 360 11.0 16.0 0.00 0.00 0.00 37 918.5
20260507054011 55 360 12.0 16.0 0.00 0.00 0.00 38 918.5
20260507053511 55 360 12.0 16.0 0.00 0.00 0.00 37 918.5
20260507053031 55 360 11.0 15.0 0.00 0.00 0.00 37 918.5
20260507052512 55 360 10.0 15.0 0.00 0.00 0.00 36 918.5
20260507052013 56 360 11.0 15.0 0.00 0.00 0.00 36 918.6
20260507051535 56 360 11.0 14.0 0.00 0.00 0.00 36 918.7
20260507051011 57 360 10.0 17.0 0.00 0.00 0.00 35 918.7
20260507050511 58 360 13.0 18.0 0.00 0.00 0.00 34 918.6
20260507050034 58 360 14.0 19.0 0.00 0.00 0.00 34 918.6
20260507045512 58 360 14.0 19.0 0.00 0.00 0.00 34 918.5
20260507045013 58 360 13.0 18.0 0.00 0.00 0.00 34 918.5
20260507044545 58 360 14.0 18.0 0.00 0.00 0.00 34 918.6
20260507044019 58 360 13.0 17.0 0.00 0.00 0.00 34 918.5
20260507043511 58 360 13.0 17.0 0.00 0.00 0.00 34 918.6
20260507043040 58 360 13.0 17.0 0.00 0.00 0.00 33 918.7
20260507042520 59 360 14.0 17.0 0.00 0.00 0.00 33 918.7
20260507042012 59 360 14.0 17.0 0.00 0.00 0.00 32 918.7
20260507041536 59 360 13.0 16.0 0.00 0.00 0.00 32 918.8
20260507041012 59 360 12.0 16.0 0.00 0.00 0.00 31 918.8
20260507040513 60 360 13.0 16.0 0.00 0.00 0.00 31 918.7
20260507040043 60 360 12.0 17.0 0.00 0.00 0.00 31 918.6
20260507035511 60 360 13.0 17.0 0.00 0.00 0.00 30 918.6
20260507035012 60 360 13.0 17.0 0.00 0.00 0.00 30 918.5
20260507034533 60 360 11.0 15.0 0.00 0.00 0.00 30 918.6
20260507034012 60 360 10.0 15.0 0.00 0.00 0.00 30 918.6
20260507033512 61 360 10.0 13.0 0.00 0.00 0.00 30 918.6
20260507033033 60 360 10.0 13.0 0.00 0.00 0.00 30 918.7
20260507032513 60 360 10.0 13.0 0.00 0.00 0.00 30 918.7
20260507032012 60 360 8.0 11.0 0.00 0.00 0.00 29 918.6
20260507031537 61 360 7.0 12.0 0.00 0.00 0.00 29 918.8
20260507031011 61 360 9.0 13.0 0.00 0.00 0.00 29 918.8
20260507030513 61 360 9.0 11.0 0.00 0.00 0.00 28 918.9
20260507030040 62 360 8.0 11.0 0.00 0.00 0.00 28 918.9
20260507025513 62 360 8.0 13.0 0.00 0.00 0.00 27 919.0
20260507025014 63 360 9.0 13.0 0.00 0.00 0.00 27 918.8
20260507024535 63 360 9.0 13.0 0.00 0.00 0.00 26 918.7
20260507024013 64 360 9.0 16.0 0.00 0.00 0.00 25 918.7
20260507023513 65 360 12.0 18.0 0.00 0.00 0.00 25 918.7
20260507023034 65 360 14.0 22.0 0.00 0.00 0.00 24 918.9
20260507022513 65 360 17.0 22.0 0.00 0.00 0.00 24 918.6
20260507022015 66 360 16.0 22.0 0.00 0.00 0.00 23 918.5
20260507021531 66 360 16.0 22.0 0.00 0.00 0.00 22 918.5
20260507021013 66 360 16.0 23.0 0.00 0.00 0.00 22 918.6
20260507020513 67 360 16.0 23.0 0.00 0.00 0.00 21 918.6
20260507020037 67 360 15.0 22.0 0.00 0.00 0.00 21 918.7
20260507015512 67 360 16.0 23.0 0.00 0.00 0.00 20 918.7
20260507015014 68 360 18.0 26.0 0.00 0.00 0.00 19 918.7
20260507014550 69 360 21.0 26.0 0.00 0.00 0.00 18 918.6
20260507014013 70 360 21.0 26.0 0.00 0.00 0.00 17 918.7
20260507013512 70 360 20.0 26.0 0.00 0.00 0.00 17 918.7
20260507013035 70 360 21.0 27.0 0.00 0.00 0.00 17 918.8
20260507012519 70 360 21.0 27.0 0.00 0.00 0.00 16 918.7
20260507012011 70 360 18.0 28.0 0.00 0.00 0.00 16 918.8
20260507011535 71 360 23.0 28.0 0.00 0.00 0.00 15 918.7
20260507011017 71 360 24.0 28.0 0.00 0.00 0.00 15 918.6
20260507010511 71 360 21.0 27.0 0.00 0.00 0.00 14 918.7
20260507010036 71 360 20.0 27.0 0.00 0.00 0.00 14 918.7
20260507005517 71 360 16.0 21.0 0.00 0.00 0.00 11 918.9
20260507005012 71 360 17.0 20.0 0.00 0.00 0.00 10 918.9
20260507004532 71 360 14.0 19.0 0.00 0.00 0.00 10 918.7
20260507004014 71 360 16.0 20.0 0.00 0.00 0.00 10 918.8
20260507003513 71 360 17.0 20.0 0.00 0.00 0.00 10 918.7
20260507003039 71 360 15.0 19.0 0.00 0.00 0.00 10 918.8
20260507002512 71 360 15.0 23.0 0.00 0.00 0.00 10 918.9
20260507002013 71 360 16.0 22.0 0.00 0.00 0.00 10 918.8
20260507001536 72 360 14.0 24.0 0.00 0.00 0.00 10 918.7
20260507001015 72 360 19.0 24.0 0.00 0.00 0.00 10 918.8
20260507000514 72 360 15.0 21.0 0.00 0.00 0.00 10 918.9
20260507000035 72 360 13.0 22.0 0.00 0.00 0.00 10 919.0
20260506235513 72 360 16.0 23.0 0.00 0.00 0.00 10 918.9